Powrót do katalogu

FENGYUN 1C DEB

LostPO
NORAD 36663·DEBRIS·🇨🇳 China

Wystrzelony May 10, 1999 z Taiyuan Satellite Launch Center

Loading…

Następne Przeloty (najbliższe 24 godziny)

TLE

NieaktualneSource: Space-Track

Epoka: Jan 5, 2017, 15:42 UTC

1 36663U 99025DYH 17005.65441086  .00000286  00000-0  11947-3 0  9997
2 36663  98.1831 309.1640 0229561 149.6750 211.8420 14.12903356379906

Śledź FENGYUN 1C DEB w czasie rzeczywistym z AllMySat

Download on the App Store